Location: Praha
(50.0830°N, 14.4670°E)
Time: 12:37:53
(UTC+02:00)

ISS - Pass Details

Date: 23 September 2021
Orbit: 419 x 423 km, 51.6° (Epoch: 21 September)

Event Time Altitude Azimuth Distance (km) Brightness Sun altitude
Rises 20:10:07 0° 260° (W) 2,362 1.4 -12.3°
Reaches altitude 10° 20:12:13 10° 262° (W) 1,500 0.2 -12.6°
Maximum altitude 20:15:35 77° 348° (NNW) 436 -3.7 -13.2°
Enters shadow 20:17:41 21° 73° (ENE) 997 -2.3 -13.5°
